EW6864 Weather Reports


Display with metric or nautical units.
time (UTC)temp
F
wind
direction
speed
MPH
gust
MPH
rain 1hr
in
rain 24hr
in
rain mn
in
humidity
%
barometer
mb
20260505114242 54 94 8.0 12.0 0.00 0.00 0.00 52 1007.5
20260505113342 55 89 8.0 15.0 0.00 0.00 0.00 51 1007.3
20260505111542 54 98 12.0 17.0 0.00 0.00 0.00 54 1007.1
20260505110642 54 98 12.0 18.0 0.00 0.00 0.00 55 1006.8
20260505102142 56 88 11.0 19.0 0.00 0.00 0.00 52 1006.2
20260505101242 56 95 12.0 19.0 0.00 0.00 0.00 52 1006.0
20260505100342 56 96 10.0 15.0 0.00 0.00 0.00 53 1005.9
20260505095442 56 94 10.0 17.0 0.00 0.00 0.00 52 1005.9
20260505093642 56 97 12.0 18.0 0.00 0.00 0.00 52 1005.9
20260505092742 55 95 8.0 18.0 0.00 0.00 0.00 55 1005.8
20260505091842 53 87 3.0 8.0 0.00 0.00 0.00 60 1005.9
20260505090942 54 85 3.0 6.0 0.00 0.00 0.00 59 1005.9
20260505090042 56 97 7.0 13.0 0.00 0.00 0.00 57 1005.8
20260505085142 56 96 8.0 12.0 0.00 0.00 0.00 55 1005.6
20260505084242 56 93 7.0 14.0 0.00 0.00 0.00 55 1005.6
20260505083342 53 73 1.0 8.0 0.00 0.00 0.00 59 1005.7
20260505081542 56 81 1.0 4.0 0.00 0.00 0.00 53 1005.5
20260505080642 58 95 3.0 7.0 0.00 0.00 0.00 53 1005.6
20260505075742 56 76 2.0 4.0 0.00 0.00 0.00 53 1005.5
20260505074842 55 70 2.0 4.0 0.00 0.00 0.00 54 1005.3
20260505073942 54 65 2.0 4.0 0.00 0.00 0.00 54 1005.1
20260505073042 55 87 1.0 6.0 0.00 0.00 0.00 53 1005.1
20260505072142 56 78 3.0 4.0 0.00 0.00 0.00 51 1005.2
20260505071242 56 75 2.0 5.0 0.00 0.00 0.00 52 1005.1
20260505070342 56 113 1.0 3.0 0.00 0.00 0.00 53 1004.9
20260505065442 56 149 1.0 4.0 0.00 0.00 0.00 56 1004.7
20260505064542 56 90 1.0 3.0 0.00 0.00 0.00 54 1004.8
20260505063642 56 92 3.0 7.0 0.00 0.00 0.00 54 1004.8
20260505062742 55 68 4.0 6.0 0.00 0.00 0.00 52 1004.7
20260505060942 55 62 6.0 12.0 0.00 0.00 0.00 53 1004.3
20260505060042 55 82 1.0 2.0 0.00 0.00 0.00 52 1004.1
20260505055142 56 85 1.0 2.0 0.00 0.00 0.00 50 1004.0
20260505054242 56 95 1.0 2.0 0.00 0.00 0.00 50 1003.9
20260505053342 57 87 1.0 3.0 0.00 0.00 0.00 47 1003.9
20260505051549 58 312 0.0 2.0 0.00 0.00 0.00 46 1003.6
20260505050642 59 311 3.0 3.0 0.00 0.00 0.00 46 1003.5
20260505041242 62 299 4.0 5.0 0.00 0.00 0.00 40 1003.5
20260505034542 64 318 3.0 5.0 0.00 0.00 0.00 38 1003.6
20260505033642 63 331 3.0 5.0 0.00 0.00 0.00 40 1003.7
20260505032742 62 337 3.0 4.0 0.00 0.00 0.00 43 1003.3
20260505031842 63 343 4.0 5.0 0.00 0.00 0.00 43 1003.6
20260505030042 65 310 3.0 3.0 0.00 0.00 0.00 38 1003.4
20260505025142 65 303 3.0 4.0 0.00 0.00 0.00 41 1003.1
20260505023342 66 295 3.0 5.0 0.00 0.00 0.00 44 1003.1
20260505022443 67 295 3.0 4.0 0.00 0.00 0.00 44 1003.2
20260505021542 68 293 3.0 5.0 0.00 0.00 0.00 42 1003.1
20260505020642 69 291 3.0 4.0 0.00 0.00 0.00 43 1003.2
20260505015742 70 285 3.0 6.0 0.00 0.00 0.00 41 1003.3
20260505014842 71 288 4.0 6.0 0.00 0.00 0.00 38 1003.2
20260505013942 72 285 6.0 9.0 0.00 0.00 0.00 38 1003.1
20260505013042 73 286 6.0 10.0 0.00 0.00 0.00 36 1003.1
20260505012142 74 284 7.0 11.0 0.00 0.00 0.00 35 1003.1
20260505011242 75 284 7.0 10.0 0.00 0.00 0.00 35 1003.2
20260505010342 75 285 8.0 11.0 0.00 0.00 0.00 33 1003.1
20260505003642 77 282 7.0 10.0 0.00 0.00 0.00 28 1003.3
20260505002742 77 286 8.0 12.0 0.00 0.00 0.00 30 1003.2
20260505001842 77 288 9.0 13.0 0.00 0.00 0.00 29 1003.4
20260505000942 78 285 8.0 11.0 0.00 0.00 0.00 29 1003.3
20260505000042 78 289 8.0 13.0 0.00 0.00 0.00 27 1003.4
20260504235142 78 288 9.0 15.0 0.00 0.00 0.00 28 1003.3
20260504233342 78 288 8.0 13.0 0.00 0.00 0.00 26 1003.4
20260504232442 78 286 8.0 13.0 0.00 0.00 0.00 24 1003.5
20260504231542 78 289 7.0 14.0 0.00 0.00 0.00 26 1003.3
20260504230642 78 286 7.0 12.0 0.00 0.00 0.00 27 1003.3
20260504225742 78 289 9.0 15.0 0.00 0.00 0.00 27 1003.5
20260504223042 78 283 6.0 12.0 0.00 0.00 0.00 26 1003.9
20260504222142 78 282 7.0 13.0 0.00 0.00 0.00 29 1004.2
20260504221242 78 274 8.0 13.0 0.00 0.00 0.00 26 1004.4
20260504220342 77 281 6.0 11.0 0.00 0.00 0.00 30 1004.4
20260504215442 77 282 7.0 12.0 0.00 0.00 0.00 30 1004.5
20260504214542 77 281 6.0 11.0 0.00 0.00 0.00 30 1004.7
20260504213642 77 281 6.0 12.0 0.00 0.00 0.00 30 1004.8
20260504211842 77 275 7.0 12.0 0.00 0.00 0.00 34 1005.2
20260504210942 77 278 5.0 12.0 0.00 0.00 0.00 32 1005.3
20260504210042 77 279 6.0 12.0 0.00 0.00 0.00 30 1005.5
20260504205142 76 281 7.0 11.0 0.00 0.00 0.00 33 1005.5
20260504204242 75 279 5.0 9.0 0.00 0.00 0.00 34 1005.7
20260504203342 75 283 7.0 10.0 0.00 0.00 0.00 37 1005.8
20260504202442 75 275 7.0 12.0 0.00 0.00 0.00 36 1005.9
20260504200642 74 292 6.0 11.0 0.00 0.00 0.00 38 1006.0
20260504195745 74 284 6.0 12.0 0.00 0.00 0.00 41 1006.1
20260504194842 73 288 4.0 10.0 0.00 0.00 0.00 41 1006.2
20260504193042 73 270 4.0 13.0 0.00 0.00 0.00 41 1006.3
20260504192142 72 274 5.0 10.0 0.00 0.00 0.00 41 1006.4
20260504191242 72 254 3.0 7.0 0.00 0.00 0.00 40 1006.6
20260504190342 72 270 5.0 10.0 0.00 0.00 0.00 39 1006.8
20260504184542 71 265 4.0 10.0 0.00 0.00 0.00 40 1006.8
20260504183642 71 237 4.0 8.0 0.00 0.00 0.00 42 1006.8
20260504182742 70 241 6.0 11.0 0.00 0.00 0.00 43 1007.0
20260504181842 70 236 6.0 13.0 0.00 0.00 0.00 41 1007.1
20260504180942 70 234 5.0 11.0 0.00 0.00 0.00 46 1007.2
20260504180042 69 247 5.0 9.0 0.00 0.00 0.00 45 1007.4
20260504175142 69 263 5.0 9.0 0.00 0.00 0.00 44 1007.4
20260504173341 67 245 6.0 11.0 0.00 0.00 0.00 45 1007.7
20260504172441 67 242 6.0 10.0 0.00 0.00 0.00 48 1007.8
20260504171541 66 251 6.0 10.0 0.00 0.00 0.00 47 1007.8
20260504170641 65 254 5.0 10.0 0.00 0.00 0.00 48 1007.9
20260504160342 61 244 7.0 11.0 0.00 0.00 0.00 51 1007.7
20260504150942 59 205 1.0 4.0 0.00 0.00 0.00 55 1008.0
20260504140642 52 105 1.0 2.0 0.00 0.00 0.00 62 1008.1
20260504130341 42 31 0.0 1.0 0.00 0.00 0.00 75 1007.3